TimeAKST,TemperatureF,Dew PointF,Humidity,Sea Level PressureIn,VisibilityMPH,Wind Direction,Wind SpeedMPH,Gust SpeedMPH,PrecipitationIn,Events,Conditions,WindDirDegrees,DateUTC
12:46 AM,6.8,-2.2,67,29.57,2.5,NE,20.7,-,0.00,Snow,Light Snow,40,2013-01-30 09:46:00
12:53 AM,6.1,-2.9,67,29.57,1.8,NE,19.6,-,0.00,Snow,Light Snow,40,2013-01-30 09:53:00
1:09 AM,6.8,-2.2,67,29.57,2.5,NE,19.6,-,0.00,Snow,Light Snow,40,2013-01-30 10:09:00
1:33 AM,6.8,-2.2,67,29.58,1.2,NE,15.0,-,0.00,Snow,Light Snow,50,2013-01-30 10:33:00
1:43 AM,6.8,-2.2,67,29.58,1.0,NE,13.8,-,0.00,Snow,Light Snow,40,2013-01-30 10:43:00
1:53 AM,7.0,-2.9,64,29.60,1.2,NE,11.5,-,0.01,Snow,Light Snow,40,2013-01-30 10:53:00
2:00 AM,6.8,3.2,85,29.58,1.5,NE,12.7,-,0.01,Snow,Light Snow,40,2013-01-30 11:00:00
2:10 AM,6.8,3.2,85,29.58,2.5,NE,12.7,-,0.01,Snow,Light Snow,40,2013-01-30 11:10:00
2:39 AM,6.8,3.2,85,29.58,1.5,NE,13.8,-,0.02,Snow,Light Snow,40,2013-01-30 11:39:00
2:53 AM,7.0,3.0,84,29.59,1.5,NE,16.1,-,0.02,Snow,Light Snow,40,2013-01-30 11:53:00
3:53 AM,8.1,3.0,80,29.57,1.5,NE,17.3,-,0.01,Snow,Light Snow,40,2013-01-30 12:53:00
4:53 AM,7.0,3.0,84,29.57,1.5,NE,17.3,-,0.01,Snow,Light Snow,40,2013-01-30 13:53:00
5:12 AM,8.6,5.0,85,29.56,1.5,NNE,18.4,-,0.00,Snow,Light Snow,30,2013-01-30 14:12:00
5:53 AM,8.1,4.1,84,29.56,2.0,NNE,17.3,-,0.00,Snow,Light Snow,30,2013-01-30 14:53:00
6:26 AM,8.6,5.0,85,29.55,6.0,NE,18.4,-,0.00,Snow,Light Snow,40,2013-01-30 15:26:00
6:53 AM,9.0,4.1,81,29.55,6.0,NE,12.7,-,0.00,Snow,Light Snow,40,2013-01-30 15:53:00
7:53 AM,10.9,5.0,77,29.55,6.0,NNE,16.1,-,0.01,Snow,Light Snow,30,2013-01-30 16:53:00
8:53 AM,12.0,6.1,77,29.55,9.0,NNE,15.0,-,0.00,Snow,Light Snow,30,2013-01-30 17:53:00
9:53 AM,14.0,6.1,71,29.53,9.0,NE,13.8,-,0.00,Snow,Light Snow,40,2013-01-30 18:53:00
10:04 AM,14.0,-9999,N/A,29.52,9.0,NE,13.8,-,0.00,Snow,Light Snow,50,2013-01-30 19:04:00
10:28 AM,15.8,-9999,N/A,29.52,9.0,NE,13.8,-,0.00,,Overcast,40,2013-01-30 19:28:00
10:53 AM,16.0,-9999,N/A,29.53,10.0,NNE,16.1,-,0.00,,Overcast,30,2013-01-30 19:53:00
11:41 AM,15.8,-9999,N/A,29.53,10.0,NE,8.1,-,N/A,,Overcast,50,2013-01-30 20:41:00
11:53 AM,15.1,10.0,80,29.54,8.0,ENE,8.1,-,0.00,Snow,Light Snow,60,2013-01-30 20:53:00
12:04 PM,15.8,-9999,N/A,29.54,8.0,NNE,9.2,-,0.00,Snow,Light Snow,30,2013-01-30 21:04:00
12:28 PM,17.6,-9999,N/A,29.53,10.0,NE,6.9,-,0.01,,Overcast,40,2013-01-30 21:28:00
12:53 PM,16.0,10.4,79,29.52,6.0,NE,9.2,-,0.01,Snow,Light Snow,40,2013-01-30 21:53:00
1:02 PM,15.8,-9999,N/A,29.52,2.5,NE,10.4,-,0.00,Snow,Light Snow,40,2013-01-30 22:02:00
1:10 PM,15.8,-9999,N/A,29.52,0.8,NNE,8.1,-,0.01,Snow,Light Snow,30,2013-01-30 22:10:00
1:15 PM,15.8,-9999,N/A,29.52,1.0,NE,10.4,-,0.01,Snow,Light Snow,40,2013-01-30 22:15:00
1:25 PM,15.8,10.4,79,29.51,0.8,NE,8.1,-,0.01,Snow,Light Snow,40,2013-01-30 22:25:00
1:33 PM,15.8,10.4,79,29.51,0.5,NE,9.2,-,0.02,Snow,Snow,40,2013-01-30 22:33:00
1:41 PM,15.8,10.4,79,29.52,1.0,NE,8.1,-,0.02,Snow,Light Snow,40,2013-01-30 22:41:00
1:53 PM,16.0,10.9,81,29.52,0.5,NE,10.4,-,0.03,Snow,Snow,40,2013-01-30 22:53:00
2:01 PM,15.8,-9999,N/A,29.52,1.0,NE,11.5,-,0.01,Snow,Light Snow,40,2013-01-30 23:01:00
2:10 PM,15.8,12.2,86,29.52,2.0,NE,10.4,-,0.02,Snow,Light Snow,50,2013-01-30 23:10:00
2:19 PM,15.8,12.2,86,29.52,3.0,NE,10.4,-,0.02,Snow,Light Snow,50,2013-01-30 23:19:00
2:33 PM,15.8,12.2,86,29.52,2.5,NE,12.7,-,0.02,Snow,Light Snow,50,2013-01-30 23:33:00
2:36 PM,15.8,12.2,86,29.52,3.0,NE,13.8,-,0.02,Snow,Light Snow,50,2013-01-30 23:36:00
2:53 PM,16.0,11.5,82,29.51,7.0,NNE,12.7,-,0.02,Snow,Light Snow,30,2013-01-30 23:53:00
3:53 PM,18.0,11.7,76,29.52,6.0,NE,15.0,-,0.01,Snow,Light Snow,40,2013-01-31 00:53:00
4:53 PM,17.1,10.9,77,29.52,9.0,NNE,11.5,-,0.00,,Overcast,30,2013-01-31 01:53:00
5:22 PM,17.6,10.4,73,29.52,4.0,NNE,11.5,-,0.00,Snow,Light Snow,30,2013-01-31 02:22:00
5:46 PM,15.8,10.4,79,29.52,2.0,NE,11.5,-,0.00,Snow,Light Snow,40,2013-01-31 02:46:00
5:53 PM,17.1,10.9,77,29.52,2.0,NNE,10.4,-,0.00,Snow,Light Snow,30,2013-01-31 02:53:00
6:08 PM,17.6,12.2,79,29.52,3.0,NNE,9.2,-,0.00,Snow,Light Snow,30,2013-01-31 03:08:00
6:19 PM,17.6,12.2,79,29.52,5.0,NE,12.7,-,0.00,Snow,Light Snow,40,2013-01-31 03:19:00
6:53 PM,18.0,12.0,78,29.52,3.0,NE,10.4,-,0.01,Snow,Light Snow,40,2013-01-31 03:53:00
7:53 PM,17.1,12.0,81,29.53,9.0,NE,12.7,-,0.01,,Overcast,50,2013-01-31 04:53:00
8:49 PM,17.6,12.2,79,29.53,2.5,NE,9.2,-,0.00,Snow,Light Snow,40,2013-01-31 05:49:00
8:50 PM,17.1,12.0,81,29.54,2.5,NE,9.2,-,0.00,Snow,Light Snow,50,2013-01-31 05:50:00
9:53 PM,17.1,12.9,84,29.55,2.0,NE,5.8,-,0.02,Snow,Light Snow,50,2013-01-31 06:53:00
10:24 PM,19.4,15.8,86,29.55,2.5,ENE,6.9,-,0.01,Snow,Light Snow,60,2013-01-31 07:24:00
10:39 PM,17.6,14.0,86,29.55,1.8,ENE,4.6,-,0.01,Snow,Light Snow,60,2013-01-31 07:39:00
10:53 PM,18.0,15.1,88,29.56,1.8,ENE,6.9,-,0.01,Snow,Light Snow,60,2013-01-31 07:53:00
11:15 PM,17.6,14.0,86,29.56,3.0,ENE,5.8,-,0.01,Snow,Light Snow,70,2013-01-31 08:15:00
11:53 PM,18.0,14.0,84,29.57,3.0,ENE,6.9,-,0.01,Snow,Light Snow,70,2013-01-31 08:53:00